| time (UTC) | temp F | wind direction | speed MPH | gust MPH | rain 1hr in | rain 24hr in | rain mn in | humidity % | barometer mb |
| 20260506164549 | 54 | 320 | 0.0 | 0.0 | 0.00 | 0.15 | 0.00 | 65 | 1015.3 |
| 20260506163056 | 53 | 321 | 0.0 | 0.0 | 0.00 | 0.15 | 0.00 | 65 | 1015.1 |
| 20260506161539 | 53 | 320 | 0.0 | 0.0 | 0.00 | 0.15 | 0.00 | 66 | 1014.7 |
| 20260506154538 | 52 | 336 | 0.0 | 0.0 | 0.00 | 0.17 | 0.00 | 67 | 1014.3 |
| 20260506153036 | 52 | 337 | 0.0 | 0.0 | 0.00 | 0.17 | 0.00 | 66 | 1014.2 |
| 20260506151540 | 53 | 348 | 0.0 | 0.0 | 0.00 | 0.17 | 0.00 | 67 | 1014.0 |
| 20260506150033 | 51 | 355 | 0.0 | 3.0 | 0.00 | 0.18 | 0.00 | 69 | 1013.9 |
| 20260506144532 | 52 | 337 | 0.0 | 1.0 | 0.00 | 0.18 | 0.00 | 67 | 1014.0 |
| 20260506143031 | 51 | 332 | 0.0 | 0.0 | 0.00 | 0.18 | 0.00 | 68 | 1014.0 |
| 20260506141525 | 49 | 326 | 0.0 | 0.0 | 0.00 | 0.18 | 0.00 | 72 | 1014.2 |
| 20260506140029 | 48 | 332 | 0.0 | 0.0 | 0.00 | 0.19 | 0.00 | 72 | 1014.1 |
| 20260506134521 | 48 | 332 | 0.0 | 0.0 | 0.00 | 0.19 | 0.00 | 74 | 1014.3 |
| 20260506133020 | 48 | 332 | 0.0 | 0.0 | 0.00 | 0.19 | 0.00 | 73 | 1014.3 |
| 20260506131521 | 48 | 331 | 0.0 | 0.0 | 0.00 | 0.19 | 0.00 | 75 | 1013.8 |
| 20260506130015 | 47 | 332 | 0.0 | 0.0 | 0.00 | 0.19 | 0.00 | 76 | 1013.5 |
| 20260506124513 | 47 | 332 | 0.0 | 0.0 | 0.00 | 0.19 | 0.00 | 79 | 1013.4 |
| 20260506123012 | 46 | 332 | 0.0 | 0.0 | 0.00 | 0.19 | 0.00 | 80 | 1012.9 |
| 20260506121508 | 46 | 331 | 0.0 | 1.0 | 0.00 | 0.19 | 0.00 | 82 | 1012.4 |
| 20260506120011 | 45 | 327 | 0.0 | 0.0 | 0.00 | 0.19 | 0.00 | 84 | 1012.5 |
| 20260506114505 | 45 | 326 | 0.0 | 0.0 | 0.00 | 0.19 | 0.00 | 86 | 1012.3 |
| 20260506113003 | 44 | 327 | 0.0 | 0.0 | 0.00 | 0.19 | 0.00 | 86 | 1012.0 |
| 20260506111502 | 44 | 327 | 0.0 | 0.0 | 0.00 | 0.19 | 0.00 | 85 | 1011.8 |
| 20260506110002 | 44 | 327 | 0.0 | 0.0 | 0.00 | 0.19 | 0.00 | 85 | 1011.8 |
| 20260506104609 | 44 | 328 | 0.0 | 0.0 | 0.00 | 0.19 | 0.00 | 86 | 1011.3 |
| 20260506103106 | 44 | 343 | 0.0 | 0.0 | 0.00 | 0.19 | 0.00 | 86 | 1011.2 |
| 20260506101632 | 44 | 355 | 0.0 | 0.0 | 0.00 | 0.19 | 0.00 | 87 | 1011.4 |
| 20260506100059 | 44 | 355 | 0.0 | 0.0 | 0.00 | 0.19 | 0.00 | 87 | 1010.9 |
| 20260506094600 | 44 | 355 | 0.0 | 0.0 | 0.00 | 0.19 | 0.00 | 88 | 1010.5 |
| 20260506093100 | 44 | 355 | 0.0 | 0.0 | 0.00 | 0.19 | 0.00 | 88 | 1010.8 |
| 20260506091555 | 44 | 360 | 0.0 | 0.0 | 0.00 | 0.19 | 0.00 | 89 | 1010.8 |
| 20260506090105 | 44 | 360 | 0.0 | 0.0 | 0.00 | 0.19 | 0.00 | 89 | 1010.7 |
| 20260506084651 | 45 | 360 | 0.0 | 0.0 | 0.00 | 0.19 | 0.00 | 89 | 1011.1 |
| 20260506083052 | 45 | 360 | 0.0 | 0.0 | 0.00 | 0.19 | 0.00 | 89 | 1011.0 |
| 20260506081548 | 46 | 360 | 0.0 | 0.0 | 0.00 | 0.19 | 0.00 | 88 | 1010.6 |
| 20260506073045 | 47 | 360 | 0.0 | 0.0 | 0.00 | 0.19 | 0.00 | 88 | 1010.4 |
| 20260506071542 | 47 | 360 | 0.0 | 0.0 | 0.00 | 0.19 | 0.00 | 88 | 1010.3 |
| 20260506061543 | 47 | 360 | 0.0 | 0.0 | 0.00 | 0.19 | 0.00 | 86 | 1009.7 |
| 20260506044530 | 47 | 25 | 0.0 | 0.0 | 0.02 | 0.62 | 0.25 | 85 | 1010.5 |
| 20260506043028 | 47 | 25 | 0.0 | 0.0 | 0.02 | 0.62 | 0.25 | 85 | 1010.5 |
| 20260506041536 | 47 | 25 | 0.0 | 1.0 | 0.01 | 0.61 | 0.24 | 86 | 1010.5 |
| 20260506040026 | 48 | 305 | 0.0 | 2.0 | 0.00 | 0.61 | 0.23 | 88 | 1010.4 |
| 20260506034534 | 48 | 293 | 0.0 | 0.0 | 0.01 | 0.61 | 0.23 | 89 | 1010.6 |
| 20260506033024 | 49 | 292 | 0.0 | 0.0 | 0.01 | 0.61 | 0.23 | 89 | 1010.6 |
| 20260506031524 | 49 | 284 | 0.0 | 0.0 | 0.01 | 0.61 | 0.23 | 89 | 1010.8 |
| 20260506030021 | 49 | 284 | 0.0 | 0.0 | 0.02 | 0.62 | 0.23 | 89 | 1010.3 |
| 20260506024519 | 49 | 284 | 0.0 | 0.0 | 0.01 | 0.61 | 0.22 | 89 | 1010.2 |
| 20260506023018 | 49 | 284 | 0.0 | 3.0 | 0.02 | 0.61 | 0.22 | 89 | 1009.9 |
| 20260506021515 | 49 | 360 | 0.0 | 0.0 | 0.02 | 0.61 | 0.22 | 88 | 1009.7 |
| 20260506020014 | 49 | 360 | 0.0 | 0.0 | 0.01 | 0.60 | 0.21 | 88 | 1009.4 |
| 20260506014513 | 49 | 360 | 0.0 | 0.0 | 0.01 | 0.59 | 0.20 | 87 | 1009.1 |
| 20260506013113 | 49 | 360 | 0.0 | 0.0 | 0.01 | 0.59 | 0.20 | 88 | 1009.0 |
| 20260506011523 | 49 | 360 | 0.0 | 0.0 | 0.01 | 0.59 | 0.20 | 87 | 1008.7 |
| 20260506010013 | 49 | 360 | 0.0 | 0.0 | 0.01 | 0.59 | 0.20 | 86 | 1008.9 |
| 20260506004512 | 48 | 9 | 0.0 | 0.0 | 0.00 | 0.57 | 0.19 | 85 | 1008.6 |
| 20260506003111 | 48 | 9 | 0.0 | 1.0 | 0.00 | 0.57 | 0.19 | 84 | 1008.5 |
| 20260506001510 | 48 | 343 | 0.0 | 0.0 | 0.00 | 0.57 | 0.19 | 84 | 1008.2 |
| 20260506000009 | 48 | 343 | 0.0 | 0.0 | 0.01 | 0.57 | 0.19 | 83 | 1008.3 |
| 20260505234509 | 48 | 342 | 0.0 | 0.0 | 0.01 | 0.57 | 0.19 | 82 | 1008.3 |
| 20260505233013 | 48 | 342 | 0.0 | 0.0 | 0.01 | 0.57 | 0.19 | 81 | 1008.4 |
| 20260505231508 | 48 | 342 | 0.0 | 0.0 | 0.00 | 0.56 | 0.18 | 80 | 1008.5 |
| 20260505230008 | 48 | 342 | 0.0 | 0.0 | 0.01 | 0.56 | 0.18 | 80 | 1008.6 |
| 20260505224511 | 48 | 342 | 0.0 | 0.0 | 0.01 | 0.56 | 0.18 | 79 | 1008.7 |
| 20260505223006 | 48 | 22 | 0.0 | 7.0 | 0.01 | 0.56 | 0.18 | 80 | 1008.5 |
| 20260505221504 | 49 | 316 | 4.0 | 8.0 | 0.02 | 0.56 | 0.18 | 83 | 1008.1 |
| 20260505220006 | 49 | 342 | 4.0 | 10.0 | 0.01 | 0.56 | 0.17 | 84 | 1008.1 |
| 20260505214502 | 49 | 321 | 4.0 | 11.0 | 0.02 | 0.56 | 0.17 | 84 | 1008.2 |
| 20260505213100 | 49 | 325 | 0.0 | 1.0 | 0.02 | 0.56 | 0.17 | 85 | 1008.3 |
| 20260505211605 | 50 | 329 | 0.0 | 0.0 | 0.02 | 0.55 | 0.16 | 87 | 1008.8 |
| 20260505210107 | 50 | 311 | 0.0 | 0.0 | 0.03 | 0.55 | 0.16 | 86 | 1009.1 |
| 20260505204605 | 50 | 332 | 0.0 | 0.0 | 0.03 | 0.54 | 0.15 | 86 | 1009.1 |
| 20260505204503 | 50 | 334 | 0.0 | 0.0 | 0.03 | 0.54 | 0.15 | 85 | 1009.1 |
| 20260505203108 | 50 | 329 | 0.0 | 0.0 | 0.03 | 0.54 | 0.15 | 85 | 1009.2 |
| 20260505201557 | 50 | 334 | 0.0 | 0.0 | 0.03 | 0.53 | 0.14 | 83 | 1009.4 |
| 20260505200109 | 50 | 332 | 0.0 | 0.0 | 0.02 | 0.51 | 0.12 | 83 | 1009.3 |
| 20260505194557 | 50 | 360 | 0.0 | 1.0 | 0.02 | 0.51 | 0.12 | 83 | 1009.2 |
| 20260505193104 | 51 | 326 | 0.0 | 0.0 | 0.01 | 0.50 | 0.11 | 85 | 1009.6 |
| 20260505191655 | 51 | 299 | 0.0 | 1.0 | 0.01 | 0.50 | 0.11 | 84 | 1009.5 |
| 20260505190057 | 52 | 349 | 4.0 | 10.0 | 0.00 | 0.49 | 0.10 | 81 | 1009.6 |
| 20260505184557 | 52 | 334 | 5.0 | 10.0 | 0.00 | 0.49 | 0.10 | 78 | 1009.5 |
| 20260505183050 | 53 | 337 | 0.0 | 12.0 | 0.00 | 0.49 | 0.10 | 77 | 1009.0 |
| 20260505181555 | 53 | 333 | 0.0 | 5.0 | 0.00 | 0.49 | 0.10 | 76 | 1008.7 |
| 20260505180049 | 54 | 317 | 4.0 | 10.0 | 0.00 | 0.51 | 0.10 | 75 | 1008.7 |
| 20260505174548 | 54 | 319 | 0.0 | 5.0 | 0.00 | 0.51 | 0.10 | 75 | 1008.5 |
| 20260505173047 | 54 | 319 | 0.0 | 5.0 | 0.00 | 0.51 | 0.10 | 75 | 1008.5 |
| 20260505171546 | 54 | 62 | 1.0 | 10.0 | 0.00 | 0.51 | 0.10 | 75 | 1008.4 |
| 20260505170045 | 54 | 305 | 0.0 | 1.0 | 0.00 | 0.51 | 0.10 | 74 | 1008.3 |